Find Praetorian SDA-618

NORAD ID: 65581 Int'l Des: 2025-203 Owner: SDA Country: US operational
LEOCIRCULARPOLAR

实时位置

正在加载3D地球...

关于 Praetorian SDA-618

正在加载描述...

即将过境

Passes for default location (London). Set your location on the main map for personalized predictions.

高度历史

Loading altitude history...

两行轨道根数

1 65581U 25203S 26132.28383399 .00000152 00000-0 12426-3 0 9992
2 65581 81.3041 43.7699 0008935 294.5789 65.4437 13.84770487 33746
Epoch: May 12, 2026 • Age: 7 hours

当前状态

高度 949.6 km
速度 7.38 km/s
星下点 -18.34°S, 34.62°W
发射日期 Sep 10, 2025
运行时间 0.6 years
类型 other

技术详情

分类 Payload
质量 300.00 kg
干质量 300.00 kg
总质量 300.00 kg
长度 1.00 m
直径 0.60 m
跨度 2.00 m
形状 Box + panels
制造商 YORKSS
平台类型 S-Class
阶段状态 In Orbit
所有者/国家 SDA/US

Most Searched